SCP
0 0 0 0 0 0 0 0 0 0 0 0 0 0 0 0 0 0 0 0 0 0 0 0 0 0 0 0 0 0 0 0 0 0 0 0 0 0 0 0 0 0 0
0 0 0 0 0 0 0 0 0 0 0 0 0 0 0 0 0 0 0 0 0 0 0 0 0 0 0 0 0 0 0 0 0 0 0 0 0 0 0 0 0 0 0
0 0 0 0 0 0 0 0 0 0 0 0 0 0 0 0 0 0 0 0 0 0 0 0 0 0 0 0 0 0 0 0 0 0 0 0 0 0 0 0 0 0 0
0 0 0 0 0 0 0 0 0 0 0 0 0 0 0 0 0 0 0 0 0 0 0 0 0 0 0 0 0 0 0 0 0 0 0 0 0 0 0 0 0 0 0
0 0 0 0 0 0 0 0 0 0 0 0 0 0 0 0 0 0 0 0 0 0 0 0 0 0 0 0 0 0 0 0 0 0 0 0 0 0 0 0 0 0 0
0 0 0 0 0 0 0 0 0 0 0 0 0 0 0 0 0 0 0 0 0 0 0 0 0 0 0 0 0 0 0 0 0 0 0 0 0 0 0 0 0 0 0
0 0 0 0 0 0 0 0 0 0 0 0 0 0 0 0 0 0 0 0 0 0 0 0 0 0 0 0 0 0 0 0 0 0 0 0 0 0 0 0 0 0 0
0 0 0 0 0 0 0 0 0 0 0 0 0 0 0 0 0 0 0 0 0 0 0 0 0 0 0 0 0 0 0 0 0 0 0 0 0 0 0 0 0 0 0
0 0 0 0 0 0 0 0 0 0 0 0 0 0 0 0 0 0 0 0 0 0 0 0 0 0 0 0 0 0 0 0 0 0 0 0 0 0 0 0 0 0 0
0 0 0 0 0 0 0 0 0 0 0 0 0 0 0 0 0 0 0 0 0 0 0 0 0 0 0 0 0 0 0 0 0 0 0 0 0 0 0 0 0 0 0
0 0 0 0 0 0 0 0 0 0 0 0 0 0 0 0 0 0 0 0 0 0 0 0 0 0 0 0 0 0 0 0 0 0 0 0 0 0 0 0 0 0 0
0 0 0 0 0 0 0 0 0 0 0 0 0 0 0 0 0 0 0 0 0 0 0 0 0 0 0 0 0 0 0 0 0 0 0 0 0 0 0 0 0 0 0
0 0 0 0 0 0 0 0 0 0 0 0 0 0 0 0 0 0 0 0 0 0 0 0 0 0 0 0 0 0 0 0 0 0 0 0 0 0 0 0 0 0 0
0 0 0 0 0 0 0 0 0 0 0 0 0 0 0 0 0 0 0 0 0 0 0 0 0 0 0 0 0 0 0 0 0 0 0 0 0 0 0 0 0 0 0
0 0 0 0 0 0 0 0 0 0 0 0 0 0 0 0 0 0 0 0 0 0 0 0 0 0 0 0 0 0 0 0 0 0 0 0 0 0 0 0 0 0 0
0 0 0 0 0 0 0 0 0 0 0 0 0 0 0 0 0 0 0 0 0 0 0 0 0 0 0 0 0 0 0 0 0 0 0 0 0 0 0 0 0 0 0
0 0 0 0 0 0 0 0 0 0 0 0 0 0 0 0 0 0 0 0 0 0 0 0 0 0 0 0 0 0 0 0 0 0 0 0 0 0 0 0 0 0 0
0 0 0 0 0 0 0 0 0 0 0 0 0 0 0 0 0 0 0 0 0 0 0 0 0 0 0 0 0 0 0 0 0 0 0 0 0 0 0 0 0 0 0
0 0 0 0 0 0 0 0 0 0 0 0 0 0 0 0 0 0 0 0 0 0 0 0 0 0 0 0 0 0 0 0 0 0 0 0 0 0 0 0 0 0 0
0 0 0 0 0 0 0 0 0 0 0 0 0 0 0 0 0 0 0 0 0 0 0 0 0 0 0 0 0 0 0 0 0 0 0 0 0 0 0 0 0 0 0
0 0 0 0 0 0 0 0 0 0 0 0 0 0 0 0 0 0 0 0 0 0 0 0 0 0 0 0 0 0 0 0 0 0 0 0 0 0 0 0 0 0 0
0 0 0 0 0 0 0 0 0 0 0 0 0 0 0 0 0 0 0 0 0 0 0 0 0 0 0 0 0 0 0 0 0 0 0 0 0 0 0 0 0 0 0
0 0 0 0 0 0 0 0 0 0 0 0 0 0 0 0 0 0 0 0 0 0 0 0 0 0 0 0 0 0 0 0 0 0 0 0 0 0 0 0 0 0 0
0 0 0 0 0 0 0 0 0 0 0 0 0 0 0 0 0 0 0 0 0 0 0 0 0 0 0 0 0 0 0 0 0 0 0 0 0 0 0 0 0 0 0
0 0 0 0 0 0 0 0 0 0 0 0 0 0 0 0 0 0 0 0 0 0 0 0 0 0 0 0 0 0 0 0 0 0 0 0 0 0 0 0 0 0 0
0 0 0 0 0 0 0 0 0 0 0 0 0 0 0 0 0 0 0 0 0 0 0 0 0 0 0 0 0 0 0 0 0 0 0 0 0 0 0 0 0 0 0
Wind_Speed
2 2 3 6 8 8 9 9 10 10 10 11 12 11 12 12 12 12 12 13 13 14 15 15 15 15 16 16 16 17 17 17 17 17 16 16 17 17 18 17 15 11 18
3 3 4 7 8 9 9 9 9 10 10 11 11 11 11 12 12 12 12 13 13 14 15 15 15 15 16 16 16 16 16 16 17 16 15 13 14 16 17 17 15 12 18
3 3 4 7 9 9 9 9 9 10 10 10 11 11 11 11 12 12 12 12 13 14 14 14 15 15 15 15 15 16 16 16 16 15 12 7 10 15 17 17 16 17 17
4 3 3 7 9 9 9 9 9 10 10 10 11 11 11 11 11 12 12 12 13 13 14 14 14 15 15 15 15 16 16 16 15 13 7 6 7 14 16 16 16 16 17
3 2 3 8 9 9 9 9 9 10 10 10 10 11 11 11 11 12 12 12 12 13 13 14 14 15 15 15 15 15 15 15 15 11 7 6 6 13 16 16 16 16 16
3 2 3 7 9 9 9 9 9 9 10 10 10 10 11 11 12 11 12 12 12 12 13 14 14 14 14 14 15 15 15 15 11 7 6 6 5 13 15 15 15 15 15
3 2 2 6 8 9 9 8 8 9 9 10 10 11 11 11 12 11 11 11 11 12 12 13 14 14 14 14 14 15 14 13 8 6 6 5 7 14 15 15 15 15 15
3 2 2 6 7 8 9 8 8 8 9 10 10 10 11 11 11 11 10 11 11 11 12 13 13 14 14 14 14 14 13 10 8 7 5 5 9 13 14 14 14 14 15
3 3 2 3 4 6 7 8 7 7 8 9 10 10 10 10 10 10 10 10 11 11 11 12 12 13 13 13 13 13 12 11 6 4 5 4 10 13 14 14 13 13 14
4 3 3 3 3 3 3 6 7 7 8 8 9 9 10 9 9 9 9 9 9 10 11 12 12 12 12 12 13 12 11 9 5 4 3 5 10 12 13 13 13 13 13
3 3 3 3 3 2 3 5 6 6 7 8 8 10 9 5 5 6 7 9 9 10 11 12 12 12 11 11 12 11 8 3 4 3 3 7 10 11 12 12 12 12 12
1 1 2 3 3 2 2 3 3 3 4 4 4 5 4 4 4 6 8 9 9 10 10 11 11 10 8 5 7 8 3 4 3 2 3 8 10 11 12 11 11 12 12
1 1 2 2 2 3 2 2 2 2 3 4 5 4 4 4 4 4 3 4 5 6 5 7 6 4 4 4 4 4 4 3 2 2 3 7 9 10 11 11 11 11 10
1 1 1 2 2 2 2 2 2 2 2 3 3 4 4 3 3 3 3 3 3 2 3 4 3 4 5 5 5 5 4 3 3 2 3 6 7 9 10 10 10 10 9
1 1 1 1 1 2 2 2 2 2 3 3 3 3 4 4 3 3 2 3 3 2 3 4 4 4 4 4 4 4 4 4 4 3 2 6 6 7 8 9 9 9 8
1 1 0 1 1 2 2 2 2 2 3 3 3 3 4 3 4 3 3 3 2 2 2 3 4 4 3 3 4 4 4 3 3 4 3 4 6 6 6 7 8 8 8
2 2 1 1 2 2 2 2 2 2 2 3 2 3 3 3 4 3 3 2 2 2 3 3 4 3 3 3 4 3 3 3 3 4 3 3 3 5 6 6 6 6 7
2 2 2 1 2 2 1 2 2 2 2 2 2 3 3 3 4 4 3 2 2 2 2 3 3 4 3 3 3 2 2 3 3 3 3 3 3 3 4 6 5 5 5
3 3 3 2 2 2 1 2 2 2 2 2 2 3 3 3 4 3 3 3 3 2 2 3 2 3 4 3 3 2 2 2 2 3 3 3 3 3 2 4 6 6 5
3 3 3 2 2 2 2 2 2 2 2 1 1 2 3 3 3 3 3 3 3 3 2 2 3 3 3 3 3 3 2 2 2 2 2 2 2 3 2 3 3 3 5
1 2 3 3 3 2 2 2 2 2 2 1 1 2 2 3 3 4 3 3 3 3 3 4 4 4 3 2 3 2 2 2 2 1 1 1 2 2 2 2 2 2 2
2 3 3 3 3 3 3 2 2 2 1 1 1 1 2 2 3 3 4 3 3 3 4 4 4 3 2 2 3 3 1 1 1 1 1 1 1 1 1 2 2 2 1
2 3 4 4 3 4 3 2 2 2 1 1 1 1 1 2 2 3 4 4 3 4 4 4 4 5 4 2 1 3 4 3 1 1 0 0 0 0 0 0 1 1 1
3 3 4 4 3 3 4 4 4 3 2 2 2 2 1 2 2 2 3 4 4 3 4 4 3 3 5 4 2 1 1 3 3 1 1 1 1 1 1 1 0 1 0
2 2 3 3 4 4 4 5 5 3 2 1 2 2 2 1 2 2 3 3 3 3 4 5 4 3 3 4 3 2 2 1 2 2 2 2 1 2 2 2 1 1 1
1 1 1 3 3 4 4 5 6 5 4 4 3 3 3 2 2 2 2 3 3 3 4 4 5 5 4 4 3 3 3 3 3 3 2 2 3 2 2 2 2 2 2
Wind_Direction
221 221 174 138 125 116 109 103 100 98 97 96 94 94 93 91 88 86 84 82 82 86 90 92 93 92 91 89 88 86 83 80 78 78 78 79 81 82 81 77 74 74 78
173 184 160 140 131 124 115 108 104 102 101 98 95 92 94 93 90 88 87 86 85 87 88 90 90 93 93 91 89 87 85 81 78 74 71 72 78 81 83 81 80 80 79
140 160 156 139 133 127 119 115 111 108 104 100 96 94 92 94 93 91 90 89 88 88 88 89 90 91 92 91 89 88 86 83 78 72 66 63 76 81 83 83 82 82 81
135 143 142 136 135 129 121 117 113 109 106 102 98 95 93 93 96 95 92 90 90 89 89 90 91 91 90 90 90 89 86 82 75 68 61 58 70 83 84 84 84 83 82
117 115 138 135 135 131 124 118 113 109 106 103 99 95 94 92 93 96 94 91 89 90 91 92 92 91 91 90 90 90 88 82 73 64 58 57 66 82 83 83 84 85 83
109 96 130 136 133 128 124 120 117 112 107 104 100 97 95 94 91 95 95 92 91 92 93 93 94 93 93 93 91 91 88 81 71 61 57 56 67 83 85 85 84 84 86
116 90 115 129 133 130 125 120 118 115 111 108 103 99 97 95 92 91 97 97 95 95 96 95 96 96 95 96 94 90 86 79 72 65 58 58 74 85 86 87 86 85 86
108 84 92 122 125 129 127 123 121 117 114 111 107 102 100 96 95 91 94 100 101 100 100 100 98 97 98 97 93 89 83 77 75 70 62 64 81 86 87 86 87 87 86
84 77 71 104 116 124 126 123 120 117 114 111 105 101 97 95 95 95 89 97 101 103 102 102 99 99 98 98 95 89 81 73 70 69 67 71 84 86 87 85 86 87 86
73 65 61 75 89 101 120 121 114 112 111 108 104 98 92 91 91 90 85 85 98 103 103 102 101 101 98 95 92 86 76 67 66 67 65 82 87 90 89 87 86 86 86
67 48 51 64 66 84 104 117 114 113 110 106 102 95 89 82 82 80 78 75 87 98 101 100 100 97 92 88 85 79 69 62 70 66 72 87 91 93 93 89 88 86 85
134 52 49 66 66 70 94 109 113 105 104 94 94 94 89 84 79 78 76 74 79 90 95 96 92 89 81 75 74 71 62 56 63 61 78 91 97 97 97 95 92 89 87
165 81 47 66 80 81 82 99 107 103 102 100 100 98 99 90 84 71 72 68 66 78 82 86 80 74 77 77 74 68 60 56 47 48 74 93 100 100 99 97 95 93 90
113 94 56 54 79 92 90 100 114 118 116 113 115 113 110 102 90 83 77 70 65 71 89 86 87 82 79 77 79 74 64 59 46 36 58 82 96 100 101 100 98 98 96
139 91 68 77 93 104 106 107 113 125 127 127 124 121 118 119 114 100 88 77 73 73 93 98 97 93 86 80 77 76 68 58 53 42 44 67 84 98 103 103 100 98 101
186 190 144 121 112 115 112 118 126 131 135 132 131 127 122 127 125 118 105 90 80 73 92 103 106 103 93 88 79 73 68 60 56 49 41 49 67 82 99 107 102 95 96
202 196 180 166 130 139 133 127 131 141 142 141 137 134 128 126 127 125 121 113 110 95 99 107 102 98 92 84 77 69 68 61 61 55 46 44 44 53 72 95 100 97 92
198 192 189 173 149 143 142 137 139 135 136 143 138 137 129 125 130 129 128 127 125 115 115 124 119 112 100 93 84 67 60 59 60 59 53 49 47 41 48 65 77 87 99
204 192 190 172 167 162 152 139 134 136 134 139 139 141 137 133 136 136 135 136 131 121 114 131 122 125 123 110 95 71 52 52 49 59 57 49 54 54 47 45 51 58 69
210 190 184 177 174 163 149 126 118 111 110 114 120 138 143 143 145 140 137 141 138 132 121 131 129 110 123 121 102 74 49 38 44 49 52 41 49 54 54 53 43 31 44
208 191 191 188 185 161 160 167 169 175 162 139 114 101 130 139 145 142 145 152 150 149 151 144 136 125 113 119 104 83 36 34 46 32 34 45 38 41 53 57 54 41 18
220 213 198 199 195 186 181 177 175 170 167 162 144 115 125 143 155 150 150 162 162 151 146 148 142 142 141 142 128 127 106 352 346 359 18 54 27 44 58 49 52 47 30
233 232 211 207 203 194 175 143 116 107 107 135 161 169 159 159 154 157 160 157 169 166 168 168 167 157 161 171 145 147 154 195 234 289 233 201 207 143 217 105 71 49 23
243 245 216 200 199 192 174 167 161 174 189 199 189 189 172 166 165 156 162 164 171 175 173 175 170 171 162 170 169 133 144 147 157 211 269 245 250 226 233 253 233 232 240
249 242 223 194 197 189 184 182 180 188 193 165 159 175 175 172 175 166 164 163 174 179 184 182 170 170 177 174 169 160 141 124 148 161 215 239 260 242 234 231 223 229 227
263 258 255 198 204 193 189 188 189 192 181 170 180 191 195 186 187 175 171 179 185 184 187 195 187 180 189 182 176 171 166 168 180 175 190 216 232 245 243 229 220 226 223